User: anonymous   Login
Location: Unspecified
(0.0000°N, 0.0000°E)
Time: 22:56:05
(UTC+00:00)
Language:

USA 207 - Orbit

View from above orbital plane
View from above orbital plane
View from above satellite
View from above satellite

Ground track
Ground track

The orbit data is extracted from the following two-line orbital elements,

1 35815U 09047A   18191.85249623 0.00000000  00000-0  00000-0 0    04
2 35815   0.0720 283.2297 0003453  18.0711 341.9665  1.00270000    03
Epoch (UTC): 10 July 2018 20:27:35
Eccentricity: 0.0003453
inclination: 0.0720°
perigee height: 35772 km
apogee height: 35801 km
right ascension of ascending node: 283.2297°
argument of perigee: 18.0711°
revolutions per day: 1.00270000
mean anomaly at epoch: 341.9665°
orbit number at epoch: 0

The dashed part of the orbit path shows where the satellite is in the earth's shadow,  

DLR